Time,TemperatureF,DewpointF,PressureIn,WindDirection,WindDirectionDegrees,WindSpeedMPH,WindSpeedGustMPH,Humidity,HourlyPrecipIn,Conditions,Clouds,dailyrainin,SoftwareType,DateUTC
2013-01-29 00:00:00,62.3,62.0,30.19,North,1,0.0,0.0,99,0.00,,---,0.00,VWS V14.01,2013-01-29 05:00:00,
2013-01-29 00:01:00,62.3,62.0,30.19,North,1,0.0,0.0,99,0.00,,---,0.00,VWS V14.01,2013-01-29 05:01:00,
2013-01-29 00:02:00,62.3,62.0,30.19,North,1,0.0,0.0,99,0.00,,---,0.00,VWS V14.01,2013-01-29 05:02:00,
2013-01-29 00:07:00,62.3,62.0,30.19,North,1,0.0,0.0,99,0.00,,---,0.00,VWS V14.01,2013-01-29 05:07:00,
2013-01-29 00:12:00,62.3,62.0,30.19,North,1,0.0,0.0,99,0.00,,---,0.00,VWS V14.01,2013-01-29 05:12:00,
2013-01-29 00:17:00,62.3,62.0,30.19,North,1,0.0,0.0,99,0.00,,---,0.00,VWS V14.01,2013-01-29 05:17:00,
2013-01-29 00:22:00,62.1,61.8,30.19,North,1,0.0,0.0,99,0.00,,---,0.00,VWS V14.01,2013-01-29 05:22:00,
2013-01-29 00:27:00,62.1,61.8,30.19,North,1,0.0,0.0,99,0.00,,---,0.00,VWS V14.01,2013-01-29 05:27:00,
2013-01-29 00:30:00,62.0,61.7,30.18,North,1,0.0,0.0,99,0.00,,---,0.00,VWS V14.01,2013-01-29 05:30:00,
2013-01-29 00:32:00,62.0,61.7,30.18,North,1,0.0,0.0,99,0.00,,---,0.00,VWS V14.01,2013-01-29 05:32:00,
2013-01-29 00:37:00,62.0,62.0,30.18,North,1,0.0,0.0,100,0.00,,---,0.00,VWS V14.01,2013-01-29 05:37:00,
2013-01-29 00:42:00,61.8,61.8,30.18,North,1,0.0,0.0,100,0.00,,---,0.00,VWS V14.01,2013-01-29 05:42:00,
2013-01-29 00:47:00,61.8,61.8,30.18,North,1,0.0,0.0,100,0.00,,---,0.00,VWS V14.01,2013-01-29 05:47:00,
2013-01-29 00:52:00,61.8,61.8,30.18,North,1,0.0,0.0,100,0.00,,---,0.00,VWS V14.01,2013-01-29 05:52:00,
2013-01-29 00:57:00,61.8,61.8,30.18,North,1,0.0,0.0,100,0.00,,---,0.00,VWS V14.01,2013-01-29 05:57:00,
2013-01-29 01:00:00,61.6,61.6,30.18,North,1,0.0,0.0,100,0.00,,---,0.00,VWS V14.01,2013-01-29 06:00:00,
2013-01-29 01:02:00,61.6,61.6,30.18,North,1,0.0,0.0,100,0.00,,---,0.00,VWS V14.01,2013-01-29 06:02:00,
2013-01-29 01:07:00,61.5,61.5,30.18,North,1,0.0,0.0,100,0.00,,---,0.00,VWS V14.01,2013-01-29 06:07:00,
2013-01-29 01:12:00,61.3,61.3,30.18,North,1,0.0,0.0,100,0.00,,---,0.00,VWS V14.01,2013-01-29 06:12:00,
2013-01-29 01:17:00,61.2,61.2,30.18,North,1,0.0,0.0,100,0.00,,---,0.00,VWS V14.01,2013-01-29 06:17:00,
2013-01-29 01:22:00,61.2,61.2,30.18,North,1,0.0,0.0,100,0.00,,---,0.00,VWS V14.01,2013-01-29 06:22:00,
2013-01-29 01:27:00,60.9,60.9,30.18,North,1,0.0,0.0,100,0.00,,---,0.00,VWS V14.01,2013-01-29 06:27:00,
2013-01-29 01:30:00,60.9,60.9,30.17,North,1,0.0,0.0,100,0.00,,---,0.00,VWS V14.01,2013-01-29 06:30:00,
2013-01-29 01:32:00,60.9,60.9,30.17,North,1,0.0,0.0,100,0.00,,---,0.00,VWS V14.01,2013-01-29 06:32:00,
2013-01-29 01:37:00,60.5,60.5,30.17,North,1,0.0,0.0,100,0.00,,---,0.00,VWS V14.01,2013-01-29 06:37:00,
2013-01-29 01:42:00,60.5,60.5,30.17,North,1,0.0,0.0,100,0.00,,---,0.00,VWS V14.01,2013-01-29 06:42:00,
2013-01-29 01:47:00,60.4,60.4,30.17,North,1,0.0,0.0,100,0.00,,---,0.00,VWS V14.01,2013-01-29 06:47:00,
2013-01-29 01:52:00,60.2,60.2,30.17,North,1,0.0,0.0,100,0.00,,---,0.00,VWS V14.01,2013-01-29 06:52:00,
2013-01-29 01:57:00,60.1,60.1,30.17,North,1,0.0,0.0,100,0.00,,---,0.00,VWS V14.01,2013-01-29 06:57:00,
2013-01-29 02:00:00,60.1,60.1,30.16,North,1,0.0,0.0,100,0.00,,---,0.00,VWS V14.01,2013-01-29 07:00:00,
2013-01-29 02:02:00,59.9,59.9,30.16,North,1,0.0,0.0,100,0.00,,---,0.00,VWS V14.01,2013-01-29 07:02:00,
2013-01-29 02:07:00,59.9,59.9,30.16,North,1,0.0,0.0,100,0.00,,---,0.00,VWS V14.01,2013-01-29 07:07:00,
2013-01-29 02:12:00,59.8,59.8,30.16,North,1,0.0,0.0,100,0.00,,---,0.00,VWS V14.01,2013-01-29 07:12:00,
2013-01-29 02:17:00,59.6,59.6,30.16,North,1,0.0,0.0,100,0.00,,---,0.00,VWS V14.01,2013-01-29 07:17:00,
2013-01-29 02:23:00,59.5,59.5,30.16,North,1,0.0,0.0,100,0.00,,---,0.00,VWS V14.01,2013-01-29 07:23:00,
2013-01-29 02:28:00,59.3,59.3,30.16,North,1,0.0,0.0,100,0.00,,---,0.00,VWS V14.01,2013-01-29 07:28:00,
2013-01-29 02:30:00,59.3,59.3,30.16,North,1,0.0,0.0,100,0.00,,---,0.00,VWS V14.01,2013-01-29 07:30:00,
2013-01-29 02:33:00,59.2,59.2,30.16,North,1,0.0,0.0,100,0.00,,---,0.00,VWS V14.01,2013-01-29 07:33:00,
2013-01-29 02:38:00,59.2,59.2,30.16,North,1,0.0,0.0,100,0.00,,---,0.00,VWS V14.01,2013-01-29 07:38:00,
2013-01-29 02:43:00,59.0,59.0,30.16,North,1,0.0,0.0,100,0.00,,---,0.00,VWS V14.01,2013-01-29 07:43:00,
2013-01-29 02:48:00,59.0,59.0,30.16,North,1,0.0,0.0,100,0.00,,---,0.00,VWS V14.01,2013-01-29 07:48:00,
2013-01-29 02:53:00,58.9,58.9,30.16,North,1,0.0,0.0,100,0.01,,---,0.02,VWS V14.01,2013-01-29 07:53:00,
2013-01-29 02:58:00,58.7,58.7,30.16,North,1,0.0,0.0,100,0.02,,---,0.02,VWS V14.01,2013-01-29 07:58:00,
2013-01-29 03:00:00,58.7,58.7,30.16,North,1,0.0,0.0,100,0.02,,---,0.02,VWS V14.01,2013-01-29 08:00:00,
2013-01-29 03:03:00,58.6,58.6,30.16,North,1,0.0,0.0,100,0.03,,---,0.03,VWS V14.01,2013-01-29 08:03:00,
2013-01-29 03:08:00,58.4,58.4,30.16,North,1,0.0,0.0,100,0.04,,---,0.04,VWS V14.01,2013-01-29 08:08:00,
2013-01-29 03:13:00,58.4,58.4,30.16,North,1,0.0,0.0,100,0.04,,---,0.04,VWS V14.01,2013-01-29 08:13:00,
2013-01-29 03:18:00,58.4,58.4,30.15,North,1,0.0,0.0,100,0.04,,---,0.04,VWS V14.01,2013-01-29 08:18:00,
2013-01-29 03:23:00,58.3,58.3,30.15,North,1,0.0,0.0,100,0.04,,---,0.04,VWS V14.01,2013-01-29 08:23:00,
2013-01-29 03:28:00,58.1,58.1,30.15,North,1,0.0,0.0,100,0.04,,---,0.04,VWS V14.01,2013-01-29 08:28:00,
2013-01-29 03:30:00,58.1,58.1,30.15,North,1,0.0,0.0,100,0.04,,---,0.04,VWS V14.01,2013-01-29 08:30:00,
2013-01-29 03:33:00,58.3,58.3,30.15,North,1,0.0,0.0,100,0.04,,---,0.04,VWS V14.01,2013-01-29 08:33:00,
2013-01-29 03:38:00,58.3,58.3,30.15,North,1,0.0,0.0,100,0.04,,---,0.04,VWS V14.01,2013-01-29 08:38:00,
2013-01-29 03:43:00,58.4,58.4,30.15,North,1,0.0,0.0,100,0.04,,---,0.04,VWS V14.01,2013-01-29 08:43:00,
2013-01-29 03:48:00,58.6,58.6,30.14,North,1,0.0,0.0,100,0.05,,---,0.05,VWS V14.01,2013-01-29 08:48:00,
2013-01-29 03:53:00,58.4,58.4,30.14,North,1,0.0,0.0,100,0.06,,---,0.06,VWS V14.01,2013-01-29 08:53:00,
2013-01-29 03:58:00,58.4,58.4,30.14,North,1,0.0,0.0,100,0.07,,---,0.07,VWS V14.01,2013-01-29 08:58:00,
2013-01-29 04:00:00,58.4,58.4,30.14,North,1,0.0,0.0,100,0.07,,---,0.07,VWS V14.01,2013-01-29 09:00:00,
2013-01-29 04:03:00,58.4,58.4,30.14,North,1,0.0,0.0,100,0.05,,---,0.07,VWS V14.01,2013-01-29 09:03:00,
2013-01-29 04:08:00,58.7,58.7,30.14,North,1,0.0,0.0,100,0.05,,---,0.07,VWS V14.01,2013-01-29 09:08:00,
2013-01-29 04:13:00,58.7,58.7,30.14,North,1,0.0,0.0,100,0.05,,---,0.07,VWS V14.01,2013-01-29 09:13:00,
2013-01-29 04:18:00,58.7,58.7,30.14,North,1,0.0,0.0,100,0.05,,---,0.07,VWS V14.01,2013-01-29 09:18:00,
2013-01-29 04:23:00,58.9,58.9,30.14,North,1,0.0,0.0,100,0.05,,---,0.07,VWS V14.01,2013-01-29 09:23:00,
2013-01-29 04:28:00,58.7,58.7,30.14,North,1,0.0,0.0,100,0.05,,---,0.07,VWS V14.01,2013-01-29 09:28:00,
2013-01-29 04:30:00,58.7,58.7,30.14,North,1,0.0,0.0,100,0.05,,---,0.07,VWS V14.01,2013-01-29 09:30:00,
2013-01-29 04:33:00,58.9,58.9,30.14,North,1,0.0,0.0,100,0.03,,---,0.07,VWS V14.01,2013-01-29 09:33:00,
2013-01-29 04:38:00,58.9,58.9,30.14,North,1,0.0,0.0,100,0.03,,---,0.07,VWS V14.01,2013-01-29 09:38:00,
2013-01-29 04:43:00,59.0,59.0,30.14,North,1,0.0,0.0,100,0.03,,---,0.07,VWS V14.01,2013-01-29 09:43:00,
2013-01-29 04:48:00,59.0,59.0,30.14,North,1,0.0,0.0,100,0.03,,---,0.07,VWS V14.01,2013-01-29 09:48:00,
2013-01-29 04:53:00,58.9,58.9,30.14,North,1,0.0,0.0,100,0.03,,---,0.07,VWS V14.01,2013-01-29 09:53:00,
2013-01-29 04:58:00,58.9,58.9,30.14,North,1,0.0,0.0,100,0.03,,---,0.07,VWS V14.01,2013-01-29 09:58:00,
2013-01-29 05:00:00,58.9,58.9,30.14,North,1,0.0,0.0,100,0.03,,---,0.07,VWS V14.01,2013-01-29 10:00:00,
2013-01-29 05:03:00,58.9,58.9,30.14,North,1,0.0,0.0,100,0.00,,---,0.07,VWS V14.01,2013-01-29 10:03:00,
2013-01-29 05:08:00,59.0,59.0,30.14,North,1,0.0,0.0,100,0.00,,---,0.07,VWS V14.01,2013-01-29 10:08:00,
2013-01-29 05:13:00,59.2,59.2,30.14,North,1,0.0,0.0,100,0.00,,---,0.07,VWS V14.01,2013-01-29 10:13:00,
2013-01-29 05:18:00,59.3,59.3,30.14,North,1,0.0,0.0,100,0.00,,---,0.07,VWS V14.01,2013-01-29 10:18:00,
2013-01-29 05:23:00,59.3,59.3,30.14,North,1,0.0,0.0,100,0.00,,---,0.07,VWS V14.01,2013-01-29 10:23:00,
2013-01-29 05:28:00,59.3,59.3,30.14,North,1,0.0,0.0,100,0.00,,---,0.07,VWS V14.01,2013-01-29 10:28:00,
2013-01-29 05:30:00,59.3,59.3,30.14,North,1,0.0,0.0,100,0.00,,---,0.07,VWS V14.01,2013-01-29 10:30:00,
2013-01-29 05:33:00,59.5,59.5,30.14,North,1,0.0,0.0,100,0.00,,---,0.07,VWS V14.01,2013-01-29 10:33:00,
2013-01-29 05:38:00,59.5,59.5,30.14,North,1,0.0,0.0,100,0.00,,---,0.07,VWS V14.01,2013-01-29 10:38:00,
2013-01-29 05:43:00,59.3,59.3,30.14,North,1,0.0,0.0,100,0.00,,---,0.07,VWS V14.01,2013-01-29 10:43:00,
2013-01-29 05:48:00,59.3,59.3,30.14,North,1,0.0,0.0,100,0.00,,---,0.07,VWS V14.01,2013-01-29 10:48:00,
2013-01-29 05:53:00,59.2,59.2,30.14,North,1,0.0,0.0,100,0.00,,---,0.07,VWS V14.01,2013-01-29 10:53:00,
2013-01-29 05:58:00,59.0,59.0,30.14,North,1,0.0,0.0,100,0.00,,---,0.07,VWS V14.01,2013-01-29 10:58:00,
2013-01-29 06:00:00,59.0,59.0,30.14,North,1,0.0,0.0,100,0.00,,---,0.07,VWS V14.01,2013-01-29 11:00:00,
2013-01-29 06:03:00,59.0,59.0,30.14,North,1,0.0,0.0,100,0.00,,---,0.07,VWS V14.01,2013-01-29 11:03:00,
2013-01-29 06:08:00,58.9,58.9,30.14,North,1,0.0,0.0,100,0.00,,---,0.07,VWS V14.01,2013-01-29 11:08:00,
2013-01-29 06:13:00,58.9,58.9,30.14,North,1,0.0,0.0,100,0.00,,---,0.07,VWS V14.01,2013-01-29 11:13:00,
2013-01-29 06:18:00,59.0,59.0,30.15,North,1,0.0,0.0,100,0.00,,---,0.07,VWS V14.01,2013-01-29 11:18:00,
2013-01-29 06:23:00,59.0,59.0,30.15,North,1,0.0,0.0,100,0.00,,---,0.07,VWS V14.01,2013-01-29 11:23:00,
2013-01-29 06:28:00,58.9,58.9,30.15,North,1,0.0,0.0,100,0.00,,---,0.07,VWS V14.01,2013-01-29 11:28:00,
2013-01-29 06:30:00,58.9,58.9,30.15,North,1,0.0,0.0,100,0.00,,---,0.07,VWS V14.01,2013-01-29 11:30:00,
2013-01-29 06:33:00,58.7,58.7,30.15,North,1,0.0,0.0,100,0.00,,---,0.07,VWS V14.01,2013-01-29 11:33:00,
2013-01-29 06:38:00,58.6,58.6,30.15,North,1,0.0,0.0,100,0.00,,---,0.07,VWS V14.01,2013-01-29 11:38:00,
2013-01-29 06:43:00,58.3,58.3,30.15,North,1,0.0,0.0,100,0.00,,---,0.07,VWS V14.01,2013-01-29 11:43:00,
2013-01-29 06:48:00,58.3,58.3,30.16,North,1,0.0,0.0,100,0.00,,---,0.07,VWS V14.01,2013-01-29 11:48:00,
2013-01-29 06:53:00,58.1,58.1,30.16,North,1,0.0,0.0,100,0.00,,---,0.07,VWS V14.01,2013-01-29 11:53:00,
2013-01-29 06:58:00,58.1,58.1,30.16,North,1,0.0,0.0,100,0.00,,---,0.07,VWS V14.01,2013-01-29 11:58:00,
2013-01-29 07:00:00,58.0,58.0,30.16,North,1,0.0,0.0,100,0.00,,---,0.07,VWS V14.01,2013-01-29 12:00:00,
2013-01-29 07:03:00,58.0,58.0,30.16,North,1,0.0,0.0,100,0.00,,---,0.07,VWS V14.01,2013-01-29 12:03:00,
2013-01-29 07:08:00,58.0,58.0,30.16,North,1,0.0,0.0,100,0.00,,---,0.07,VWS V14.01,2013-01-29 12:08:00,
2013-01-29 07:13:00,57.8,57.8,30.16,North,1,0.0,0.0,100,0.00,,---,0.07,VWS V14.01,2013-01-29 12:13:00,
2013-01-29 07:18:00,57.6,57.6,30.16,North,1,0.0,0.0,100,0.00,,---,0.07,VWS V14.01,2013-01-29 12:18:00,
2013-01-29 07:23:00,57.6,57.6,30.16,North,1,0.0,0.0,100,0.00,,---,0.07,VWS V14.01,2013-01-29 12:23:00,
2013-01-29 07:28:00,57.6,57.6,30.16,North,1,0.0,0.0,100,0.00,,---,0.07,VWS V14.01,2013-01-29 12:28:00,
2013-01-29 07:30:00,57.6,57.6,30.16,North,1,0.0,0.0,100,0.00,,---,0.07,VWS V14.01,2013-01-29 12:30:00,
2013-01-29 07:33:00,57.6,57.6,30.16,North,1,0.0,0.0,100,0.00,,---,0.07,VWS V14.01,2013-01-29 12:33:00,
2013-01-29 07:38:00,57.5,57.5,30.16,North,1,0.0,0.0,100,0.00,,---,0.07,VWS V14.01,2013-01-29 12:38:00,
2013-01-29 07:43:00,57.6,57.6,30.16,North,1,0.0,0.0,100,0.00,,---,0.07,VWS V14.01,2013-01-29 12:43:00,
2013-01-29 07:48:00,57.6,57.6,30.16,North,1,0.0,0.0,100,0.01,,---,0.08,VWS V14.01,2013-01-29 12:48:00,
2013-01-29 07:53:00,57.6,57.6,30.16,North,1,0.0,0.0,100,0.02,,---,0.09,VWS V14.01,2013-01-29 12:53:00,
2013-01-29 07:58:00,58.0,58.0,30.16,North,1,0.0,0.0,100,0.02,,---,0.09,VWS V14.01,2013-01-29 12:58:00,
2013-01-29 08:00:00,58.0,58.0,30.16,North,1,0.0,0.0,100,0.02,,---,0.09,VWS V14.01,2013-01-29 13:00:00,
2013-01-29 08:03:00,58.0,58.0,30.16,North,1,0.0,0.0,100,0.02,,---,0.09,VWS V14.01,2013-01-29 13:03:00,
2013-01-29 08:08:00,58.1,58.1,30.16,North,1,0.0,0.0,100,0.02,,---,0.09,VWS V14.01,2013-01-29 13:08:00,
2013-01-29 08:13:00,58.4,58.4,30.16,North,1,0.0,0.0,100,0.02,,---,0.09,VWS V14.01,2013-01-29 13:13:00,
2013-01-29 08:18:00,58.7,58.7,30.16,North,1,0.0,0.0,100,0.02,,---,0.09,VWS V14.01,2013-01-29 13:18:00,
2013-01-29 08:23:00,59.2,59.2,30.16,North,1,0.0,0.0,100,0.02,,---,0.09,VWS V14.01,2013-01-29 13:23:00,
2013-01-29 08:28:00,59.6,59.6,30.16,North,1,0.0,0.0,100,0.02,,---,0.09,VWS V14.01,2013-01-29 13:28:00,
2013-01-29 08:30:00,59.9,59.9,30.16,North,1,0.0,0.0,100,0.02,,---,0.09,VWS V14.01,2013-01-29 13:30:00,
2013-01-29 08:33:00,60.2,60.2,30.16,North,1,0.0,0.0,100,0.02,,---,0.09,VWS V14.01,2013-01-29 13:33:00,
2013-01-29 08:38:00,61.0,61.0,30.16,North,1,0.0,0.0,100,0.02,,---,0.09,VWS V14.01,2013-01-29 13:38:00,
2013-01-29 08:43:00,62.0,62.0,30.16,North,1,0.0,0.0,100,0.02,,---,0.09,VWS V14.01,2013-01-29 13:43:00,
2013-01-29 08:48:00,63.1,63.1,30.17,North,1,0.0,2.0,100,0.02,,---,0.09,VWS V14.01,2013-01-29 13:48:00,
2013-01-29 08:53:00,63.7,63.7,30.17,North,1,0.0,2.0,100,0.02,,---,0.09,VWS V14.01,2013-01-29 13:53:00,
2013-01-29 08:58:00,64.3,64.3,30.17,North,1,0.0,2.0,100,0.02,,---,0.09,VWS V14.01,2013-01-29 13:58:00,
2013-01-29 09:00:00,64.5,64.5,30.17,North,1,0.0,2.0,100,0.02,,---,0.09,VWS V14.01,2013-01-29 14:00:00,
2013-01-29 09:03:00,65.0,65.0,30.17,North,1,0.0,1.0,100,0.00,,---,0.09,VWS V14.01,2013-01-29 14:03:00,
2013-01-29 09:08:00,65.3,65.3,30.17,SE,141,2.0,3.0,100,0.00,,---,0.09,VWS V14.01,2013-01-29 14:08:00,
2013-01-29 09:13:00,65.6,65.6,30.17,SE,133,0.0,3.0,100,0.00,,---,0.09,VWS V14.01,2013-01-29 14:13:00,
2013-01-29 09:18:00,66.1,66.1,30.17,SE,133,0.0,3.0,100,0.00,,---,0.09,VWS V14.01,2013-01-29 14:18:00,
2013-01-29 09:23:00,66.6,66.6,30.17,ESE,106,1.0,3.0,100,0.00,,---,0.09,VWS V14.01,2013-01-29 14:23:00,
2013-01-29 09:28:00,67.1,67.1,30.17,East,90,0.0,3.0,100,0.00,,---,0.09,VWS V14.01,2013-01-29 14:28:00,
2013-01-29 09:30:00,67.1,67.1,30.17,ESE,123,1.0,3.0,100,0.00,,---,0.09,VWS V14.01,2013-01-29 14:30:00,
2013-01-29 09:33:00,67.4,67.4,30.17,ESE,123,1.0,1.0,100,0.00,,---,0.09,VWS V14.01,2013-01-29 14:33:00,
2013-01-29 09:38:00,67.9,67.6,30.17,ESE,121,0.0,1.0,99,0.00,,---,0.09,VWS V14.01,2013-01-29 14:38:00,
2013-01-29 09:43:00,68.1,67.2,30.17,East,95,0.0,5.0,97,0.00,,---,0.09,VWS V14.01,2013-01-29 14:43:00,
2013-01-29 09:48:00,68.6,66.8,30.17,East,95,0.0,5.0,94,0.00,,---,0.09,VWS V14.01,2013-01-29 14:48:00,
2013-01-29 09:53:00,69.1,67.0,30.17,ESE,110,0.0,5.0,93,0.00,,---,0.09,VWS V14.01,2013-01-29 14:53:00,
2013-01-29 09:58:00,69.8,66.7,30.17,SE,124,0.0,5.0,90,0.00,,---,0.09,VWS V14.01,2013-01-29 14:58:00,
2013-01-29 10:00:00,69.9,66.2,30.17,ESE,104,0.0,5.0,88,0.00,,---,0.09,VWS V14.01,2013-01-29 15:00:00,
2013-01-29 10:03:00,70.3,66.2,30.17,SSE,161,0.0,3.0,87,0.00,,---,0.09,VWS V14.01,2013-01-29 15:03:00,
2013-01-29 10:08:00,70.9,66.5,30.17,ESE,120,0.0,3.0,86,0.00,,---,0.09,VWS V14.01,2013-01-29 15:08:00,
2013-01-29 10:13:00,71.5,65.7,30.17,East,93,3.0,7.0,82,0.00,,---,0.09,VWS V14.01,2013-01-29 15:13:00,
2013-01-29 10:18:00,72.0,65.5,30.17,East,95,0.0,7.0,80,0.00,,---,0.09,VWS V14.01,2013-01-29 15:18:00,
2013-01-29 10:23:00,72.3,65.8,30.17,South,172,0.0,7.0,80,0.00,,---,0.09,VWS V14.01,2013-01-29 15:23:00,
2013-01-29 10:28:00,72.8,65.9,30.17,ENE,76,1.0,7.0,79,0.00,,---,0.09,VWS V14.01,2013-01-29 15:28:00,
2013-01-29 10:30:00,73.0,65.7,30.17,ESE,104,0.0,7.0,78,0.00,,---,0.09,VWS V14.01,2013-01-29 15:30:00,
2013-01-29 10:33:00,73.2,65.9,30.17,East,95,0.0,0.0,78,0.00,,---,0.09,VWS V14.01,2013-01-29 15:33:00,
2013-01-29 10:38:00,73.9,66.2,30.17,East,99,0.0,0.0,77,0.00,,---,0.09,VWS V14.01,2013-01-29 15:38:00,
2013-01-29 10:43:00,73.9,65.9,30.17,East,93,1.0,3.0,76,0.00,,---,0.09,VWS V14.01,2013-01-29 15:43:00,
2013-01-29 10:48:00,74.0,66.0,30.16,ESE,119,1.0,5.0,76,0.00,,---,0.09,VWS V14.01,2013-01-29 15:48:00,
2013-01-29 10:53:00,74.4,66.0,30.16,East,80,0.0,5.0,75,0.00,,---,0.09,VWS V14.01,2013-01-29 15:53:00,
2013-01-29 10:58:00,74.6,66.2,30.16,ESE,120,0.0,5.0,75,0.00,,---,0.09,VWS V14.01,2013-01-29 15:58:00,
2013-01-29 11:00:00,74.7,66.3,30.16,East,95,0.0,5.0,75,0.00,,---,0.09,VWS V14.01,2013-01-29 16:00:00,
2013-01-29 11:03:00,74.9,66.1,30.16,East,96,0.0,0.0,74,0.00,,---,0.09,VWS V14.01,2013-01-29 16:03:00,
2013-01-29 11:08:00,75.1,66.2,30.16,NE,55,0.0,0.0,74,0.00,,---,0.09,VWS V14.01,2013-01-29 16:08:00,
2013-01-29 11:13:00,75.1,65.9,30.16,ENE,61,0.0,2.0,73,0.00,,---,0.09,VWS V14.01,2013-01-29 16:13:00,
2013-01-29 11:18:00,75.3,66.4,30.16,SE,124,0.0,2.0,74,0.00,,---,0.09,VWS V14.01,2013-01-29 16:18:00,
2013-01-29 11:23:00,75.6,65.9,30.16,ESE,110,2.0,4.0,72,0.00,,---,0.09,VWS V14.01,2013-01-29 16:23:00,
2013-01-29 11:28:00,76.0,66.3,30.16,NE,54,0.0,4.0,72,0.00,,---,0.09,VWS V14.01,2013-01-29 16:28:00,
2013-01-29 11:30:00,75.8,65.7,30.15,ENE,71,0.0,4.0,71,0.00,,---,0.09,VWS V14.01,2013-01-29 16:30:00,
2013-01-29 11:33:00,75.3,65.7,30.15,NE,52,0.0,6.0,72,0.00,,---,0.09,VWS V14.01,2013-01-29 16:33:00,
2013-01-29 11:38:00,74.6,65.4,30.15,NW,322,0.0,6.0,73,0.00,,---,0.09,VWS V14.01,2013-01-29 16:38:00,
2013-01-29 11:43:00,74.2,65.4,30.15,ENE,64,0.0,6.0,74,0.00,,---,0.09,VWS V14.01,2013-01-29 16:43:00,
2013-01-29 11:48:00,74.2,65.8,30.15,ESE,107,0.0,6.0,75,0.00,,---,0.09,VWS V14.01,2013-01-29 16:48:00,
2013-01-29 11:53:00,74.2,65.8,30.15,ESE,120,0.0,6.0,75,0.00,,---,0.09,VWS V14.01,2013-01-29 16:53:00,
2013-01-29 11:58:00,74.0,66.0,30.15,NE,42,0.0,6.0,76,0.00,,---,0.09,VWS V14.01,2013-01-29 16:58:00,
2013-01-29 12:00:00,74.4,66.3,30.14,SSE,157,0.0,6.0,76,0.00,,---,0.09,VWS V14.01,2013-01-29 17:00:00,
2013-01-29 12:03:00,74.9,66.1,30.14,ESE,119,0.0,4.0,74,0.00,,---,0.09,VWS V14.01,2013-01-29 17:03:00,
2013-01-29 12:08:00,75.3,66.4,30.14,ENE,65,0.0,6.0,74,0.00,,---,0.09,VWS V14.01,2013-01-29 17:08:00,
2013-01-29 12:13:00,75.4,66.2,30.14,ENE,73,4.0,10.0,73,0.00,,---,0.09,VWS V14.01,2013-01-29 17:13:00,
2013-01-29 12:18:00,75.6,65.9,30.13,ESE,114,0.0,10.0,72,0.00,,---,0.09,VWS V14.01,2013-01-29 17:18:00,
2013-01-29 12:23:00,75.8,66.5,30.13,ENE,78,0.0,10.0,73,0.00,,---,0.09,VWS V14.01,2013-01-29 17:23:00,
2013-01-29 12:28:00,76.3,66.2,30.13,East,79,0.0,10.0,71,0.00,,---,0.09,VWS V14.01,2013-01-29 17:28:00,
2013-01-29 12:30:00,76.3,66.2,30.12,SE,131,0.0,10.0,71,0.00,,---,0.09,VWS V14.01,2013-01-29 17:30:00,
2013-01-29 12:33:00,76.5,66.0,30.12,ESE,103,0.0,2.0,70,0.00,,---,0.09,VWS V14.01,2013-01-29 17:33:00,
2013-01-29 12:38:00,76.3,66.6,30.12,ESE,103,0.0,3.0,72,0.00,,---,0.09,VWS V14.01,2013-01-29 17:38:00,
2013-01-29 12:43:00,76.3,66.6,30.12,ESE,117,0.0,3.0,72,0.00,,---,0.09,VWS V14.01,2013-01-29 17:43:00,
2013-01-29 12:48:00,76.3,66.6,30.11,SE,126,0.0,3.0,72,0.00,,---,0.09,VWS V14.01,2013-01-29 17:48:00,
2013-01-29 12:53:00,76.0,66.7,30.11,SE,143,0.0,3.0,73,0.00,,---,0.09,VWS V14.01,2013-01-29 17:53:00,
2013-01-29 12:58:00,76.3,67.0,30.11,ENE,76,1.0,5.0,73,0.00,,---,0.09,VWS V14.01,2013-01-29 17:58:00,
2013-01-29 13:00:00,76.0,66.3,30.10,East,96,3.0,7.0,72,0.00,,---,0.09,VWS V14.01,2013-01-29 18:00:00,
2013-01-29 13:03:00,76.0,67.1,30.10,SE,136,0.0,3.0,74,0.00,,---,0.09,VWS V14.01,2013-01-29 18:03:00,
2013-01-29 13:08:00,76.1,66.8,30.10,NE,38,0.0,5.0,73,0.00,,---,0.09,VWS V14.01,2013-01-29 18:08:00,
2013-01-29 13:13:00,75.6,66.3,30.10,SE,134,0.0,7.0,73,0.00,,---,0.09,VWS V14.01,2013-01-29 18:13:00,
2013-01-29 13:18:00,76.3,67.4,30.10,ENE,69,0.0,7.0,74,0.00,,---,0.09,VWS V14.01,2013-01-29 18:18:00,
2013-01-29 13:23:00,75.4,66.5,30.10,ESE,110,2.0,8.0,74,0.00,,---,0.09,VWS V14.01,2013-01-29 18:23:00,
2013-01-29 13:28:00,73.9,66.2,30.10,ESE,112,0.0,8.0,77,0.00,,---,0.09,VWS V14.01,2013-01-29 18:28:00,
2013-01-29 13:30:00,73.9,66.6,30.09,SE,127,0.0,8.0,78,0.00,,---,0.09,VWS V14.01,2013-01-29 18:30:00,
2013-01-29 13:33:00,73.5,66.6,30.09,SE,136,0.0,2.0,79,0.00,,---,0.09,VWS V14.01,2013-01-29 18:33:00,
2013-01-29 13:38:00,74.0,67.1,30.09,SSE,154,6.0,6.0,79,0.00,,---,0.09,VWS V14.01,2013-01-29 18:38:00,
2013-01-29 13:43:00,74.6,66.5,30.09,NE,41,0.0,6.0,76,0.00,,---,0.09,VWS V14.01,2013-01-29 18:43:00,
2013-01-29 13:48:00,74.9,66.8,30.08,ESE,107,0.0,6.0,76,0.00,,---,0.09,VWS V14.01,2013-01-29 18:48:00,
2013-01-29 13:53:00,74.6,66.9,30.08,ESE,112,3.0,8.0,77,0.00,,---,0.09,VWS V14.01,2013-01-29 18:53:00,
2013-01-29 13:58:00,74.2,66.9,30.08,ENE,71,1.0,8.0,78,0.00,,---,0.09,VWS V14.01,2013-01-29 18:58:00,
2013-01-29 14:00:00,74.4,66.7,30.07,SE,144,0.0,8.0,77,0.00,,---,0.09,VWS V14.01,2013-01-29 19:00:00,
2013-01-29 14:03:00,74.7,67.0,30.07,East,97,0.0,2.0,77,0.00,,---,0.09,VWS V14.01,2013-01-29 19:03:00,
2013-01-29 14:08:00,75.3,66.8,30.07,SE,136,0.0,4.0,75,0.00,,---,0.09,VWS V14.01,2013-01-29 19:08:00,
2013-01-29 14:13:00,74.4,66.3,30.07,ESE,103,1.0,8.0,76,0.00,,---,0.09,VWS V14.01,2013-01-29 19:13:00,
2013-01-29 14:18:00,74.9,66.8,30.07,ESE,107,3.0,8.0,76,0.00,,---,0.09,VWS V14.01,2013-01-29 19:18:00,
2013-01-29 14:23:00,75.3,66.8,30.07,ESE,107,2.0,8.0,75,0.00,,---,0.09,VWS V14.01,2013-01-29 19:23:00,
2013-01-29 14:28:00,75.3,66.8,30.07,ESE,112,0.0,8.0,75,0.00,,---,0.09,VWS V14.01,2013-01-29 19:28:00,
2013-01-29 14:30:00,74.9,66.4,30.06,ENE,71,0.0,8.0,75,0.00,,---,0.09,VWS V14.01,2013-01-29 19:30:00,
2013-01-29 14:33:00,74.6,66.5,30.06,East,83,3.0,6.0,76,0.00,,---,0.09,VWS V14.01,2013-01-29 19:33:00,
2013-01-29 14:38:00,74.6,66.9,30.06,NE,45,0.0,8.0,77,0.00,,---,0.09,VWS V14.01,2013-01-29 19:38:00,
2013-01-29 14:43:00,75.3,66.8,30.06,ESE,121,0.0,8.0,75,0.00,,---,0.09,VWS V14.01,2013-01-29 19:43:00,
2013-01-29 14:48:00,75.3,66.4,30.06,ESE,113,1.0,8.0,74,0.00,,---,0.09,VWS V14.01,2013-01-29 19:48:00,
2013-01-29 14:53:00,74.9,66.4,30.06,ESE,112,0.0,8.0,75,0.00,,---,0.09,VWS V14.01,2013-01-29 19:53:00,
2013-01-29 14:57:00,75.1,66.6,30.06,ENE,65,0.0,10.0,75,0.00,,---,0.09,VWS V14.01,2013-01-29 19:57:00,
2013-01-29 15:00:00,75.8,67.3,30.06,SE,140,2.0,10.0,75,0.00,,---,0.09,VWS V14.01,2013-01-29 20:00:00,
2013-01-29 15:02:00,75.6,66.3,30.06,ENE,78,3.0,8.0,73,0.00,,---,0.09,VWS V14.01,2013-01-29 20:02:00,
2013-01-29 15:07:00,75.4,66.5,30.06,East,88,0.0,8.0,74,0.00,,---,0.09,VWS V14.01,2013-01-29 20:07:00,
2013-01-29 15:12:00,75.3,66.1,30.06,SE,128,0.0,9.0,73,0.00,,---,0.09,VWS V14.01,2013-01-29 20:12:00,
2013-01-29 15:17:00,74.4,66.0,30.06,SE,124,0.0,10.0,75,0.00,,---,0.09,VWS V14.01,2013-01-29 20:17:00,
2013-01-29 15:22:00,74.0,66.0,30.06,East,82,0.0,10.0,76,0.00,,---,0.09,VWS V14.01,2013-01-29 20:22:00,
2013-01-29 15:27:00,74.2,66.5,30.06,ESE,109,0.0,10.0,77,0.00,,---,0.09,VWS V14.01,2013-01-29 20:27:00,
2013-01-29 15:30:00,74.2,66.2,30.06,ESE,113,0.0,10.0,76,0.00,,---,0.09,VWS V14.01,2013-01-29 20:30:00,
2013-01-29 15:32:00,74.6,66.5,30.06,ENE,72,0.0,5.0,76,0.00,,---,0.09,VWS V14.01,2013-01-29 20:32:00,
2013-01-29 15:37:00,74.6,66.5,30.06,ENE,72,3.0,6.0,76,0.00,,---,0.09,VWS V14.01,2013-01-29 20:37:00,
2013-01-29 15:42:00,74.4,66.7,30.06,SE,136,0.0,7.0,77,0.00,,---,0.09,VWS V14.01,2013-01-29 20:42:00,
2013-01-29 15:47:00,73.7,66.8,30.05,SE,137,5.0,10.0,79,0.00,,---,0.09,VWS V14.01,2013-01-29 20:47:00,
2013-01-29 15:52:00,73.7,67.2,30.05,East,93,0.0,10.0,80,0.00,,---,0.09,VWS V14.01,2013-01-29 20:52:00,
2013-01-29 15:57:00,73.9,66.6,30.05,East,89,0.0,10.0,78,0.00,,---,0.09,VWS V14.01,2013-01-29 20:57:00,
2013-01-29 16:00:00,73.7,66.8,30.05,ESE,123,0.0,10.0,79,0.00,,---,0.09,VWS V14.01,2013-01-29 21:00:00,
2013-01-29 16:02:00,73.7,66.8,30.05,SE,138,0.0,3.0,79,0.00,,---,0.09,VWS V14.01,2013-01-29 21:02:00,
2013-01-29 16:07:00,73.7,67.2,30.05,ESE,107,0.0,3.0,80,0.00,,---,0.09,VWS V14.01,2013-01-29 21:07:00,
2013-01-29 16:12:00,73.5,67.0,30.05,ESE,112,0.0,3.0,80,0.00,,---,0.09,VWS V14.01,2013-01-29 21:12:00,
2013-01-29 16:17:00,73.2,67.0,30.05,East,90,0.0,3.0,81,0.00,,---,0.09,VWS V14.01,2013-01-29 21:17:00,
2013-01-29 16:22:00,73.0,66.8,30.05,SE,141,5.0,5.0,81,0.00,,---,0.09,VWS V14.01,2013-01-29 21:22:00,
2013-01-29 16:27:00,72.5,67.1,30.05,East,95,0.0,10.0,83,0.00,,---,0.09,VWS V14.01,2013-01-29 21:27:00,
2013-01-29 16:30:00,72.5,67.1,30.05,SE,127,0.0,10.0,83,0.00,,---,0.09,VWS V14.01,2013-01-29 21:30:00,
2013-01-29 16:32:00,72.7,67.2,30.05,ESE,103,0.0,1.0,83,0.00,,---,0.09,VWS V14.01,2013-01-29 21:32:00,
2013-01-29 16:37:00,72.5,66.7,30.05,SE,131,0.0,5.0,82,0.00,,---,0.09,VWS V14.01,2013-01-29 21:37:00,
2013-01-29 16:42:00,72.3,66.8,30.05,ESE,123,0.0,6.0,83,0.00,,---,0.09,VWS V14.01,2013-01-29 21:42:00,
2013-01-29 16:47:00,72.1,66.7,30.05,ESE,120,0.0,6.0,83,0.00,,---,0.09,VWS V14.01,2013-01-29 21:47:00,
2013-01-29 16:52:00,72.0,66.9,30.05,SE,141,0.0,6.0,84,0.00,,---,0.09,VWS V14.01,2013-01-29 21:52:00,
2013-01-29 16:57:00,71.6,66.9,30.05,SE,130,0.0,6.0,85,0.00,,---,0.09,VWS V14.01,2013-01-29 21:57:00,
2013-01-29 17:00:00,71.5,66.8,30.05,ESE,116,0.0,6.0,85,0.00,,---,0.09,VWS V14.01,2013-01-29 22:00:00,
2013-01-29 17:02:00,71.5,66.8,30.05,East,95,0.0,2.0,85,0.00,,---,0.09,VWS V14.01,2013-01-29 22:02:00,
2013-01-29 17:07:00,71.3,66.9,30.05,East,97,0.0,2.0,86,0.00,,---,0.09,VWS V14.01,2013-01-29 22:07:00,
2013-01-29 17:12:00,70.9,66.5,30.05,SE,124,7.0,7.0,86,0.00,,---,0.09,VWS V14.01,2013-01-29 22:12:00,
2013-01-29 17:17:00,70.8,66.7,30.04,East,96,0.0,7.0,87,0.00,,---,0.09,VWS V14.01,2013-01-29 22:17:00,
2013-01-29 17:22:00,70.4,66.3,30.04,SE,134,0.0,7.0,87,0.00,,---,0.09,VWS V14.01,2013-01-29 22:22:00,
2013-01-29 17:27:00,70.3,66.6,30.04,SE,124,2.0,7.0,88,0.00,,---,0.09,VWS V14.01,2013-01-29 22:27:00,
2013-01-29 17:30:00,70.1,66.4,30.05,ENE,78,0.0,7.0,88,0.00,,---,0.09,VWS V14.01,2013-01-29 22:30:00,
2013-01-29 17:32:00,70.1,66.4,30.05,East,97,0.0,5.0,88,0.00,,---,0.09,VWS V14.01,2013-01-29 22:32:00,
2013-01-29 17:37:00,69.9,66.2,30.05,East,89,0.0,5.0,88,0.00,,---,0.09,VWS V14.01,2013-01-29 22:37:00,
2013-01-29 17:42:00,69.8,66.4,30.05,ESE,102,0.0,5.0,89,0.00,,---,0.09,VWS V14.01,2013-01-29 22:42:00,
2013-01-29 17:47:00,69.6,66.2,30.05,ESE,117,0.0,10.0,89,0.00,,---,0.09,VWS V14.01,2013-01-29 22:47:00,
2013-01-29 17:52:00,69.4,66.0,30.05,SE,140,1.0,10.0,89,0.00,,---,0.09,VWS V14.01,2013-01-29 22:52:00,
2013-01-29 17:57:00,69.3,65.9,30.05,ESE,114,0.0,10.0,89,0.00,,---,0.09,VWS V14.01,2013-01-29 22:57:00,
2013-01-29 18:00:00,69.1,65.7,30.04,NE,51,0.0,10.0,89,0.00,,---,0.09,VWS V14.01,2013-01-29 23:00:00,
2013-01-29 18:02:00,69.1,66.1,30.04,East,86,0.0,0.0,90,0.00,,---,0.09,VWS V14.01,2013-01-29 23:02:00,
2013-01-29 18:07:00,68.9,65.8,30.04,ESE,106,0.0,0.0,90,0.00,,---,0.09,VWS V14.01,2013-01-29 23:07:00,
2013-01-29 18:12:00,68.8,65.8,30.04,East,99,0.0,1.0,90,0.00,,---,0.09,VWS V14.01,2013-01-29 23:12:00,
2013-01-29 18:17:00,68.6,65.9,30.05,ESE,119,0.0,1.0,91,0.00,,---,0.09,VWS V14.01,2013-01-29 23:17:00,
2013-01-29 18:22:00,68.6,65.9,30.05,SE,137,0.0,6.0,91,0.00,,---,0.09,VWS V14.01,2013-01-29 23:22:00,
2013-01-29 18:27:00,68.4,65.7,30.05,ESE,121,0.0,6.0,91,0.00,,---,0.09,VWS V14.01,2013-01-29 23:27:00,
2013-01-29 18:30:00,68.4,65.7,30.05,ESE,107,2.0,6.0,91,0.00,,---,0.09,VWS V14.01,2013-01-29 23:30:00,
2013-01-29 18:32:00,68.4,65.7,30.05,ESE,121,0.0,2.0,91,0.00,,---,0.09,VWS V14.01,2013-01-29 23:32:00,
2013-01-29 18:37:00,68.4,65.7,30.05,East,93,0.0,2.0,91,0.00,,---,0.09,VWS V14.01,2013-01-29 23:37:00,
2013-01-29 18:42:00,68.4,65.7,30.05,East,80,1.0,3.0,91,0.00,,---,0.09,VWS V14.01,2013-01-29 23:42:00,
2013-01-29 18:47:00,68.4,66.0,30.04,ESE,119,0.0,3.0,92,0.00,,---,0.09,VWS V14.01,2013-01-29 23:47:00,
2013-01-29 18:52:00,68.4,66.0,30.04,ESE,109,0.0,3.0,92,0.00,,---,0.09,VWS V14.01,2013-01-29 23:52:00,
2013-01-29 18:57:00,68.4,66.0,30.04,East,86,3.0,3.0,92,0.00,,---,0.09,VWS V14.01,2013-01-29 23:57:00,
2013-01-29 19:00:00,68.4,66.0,30.04,East,100,3.0,5.0,92,0.00,,---,0.09,VWS V14.01,2013-01-30 00:00:00,
2013-01-29 19:02:00,68.3,65.9,30.04,East,90,5.0,5.0,92,0.00,,---,0.09,VWS V14.01,2013-01-30 00:02:00,
2013-01-29 19:07:00,68.3,65.9,30.04,East,93,2.0,6.0,92,0.00,,---,0.09,VWS V14.01,2013-01-30 00:07:00,
2013-01-29 19:12:00,68.3,65.9,30.04,East,93,0.0,6.0,92,0.00,,---,0.09,VWS V14.01,2013-01-30 00:12:00,
2013-01-29 19:17:00,68.1,65.7,30.03,East,80,0.0,6.0,92,0.00,,---,0.09,VWS V14.01,2013-01-30 00:17:00,
2013-01-29 19:22:00,68.1,65.7,30.03,ESE,109,0.0,6.0,92,0.00,,---,0.09,VWS V14.01,2013-01-30 00:22:00,
2013-01-29 19:27:00,68.1,65.7,30.03,East,85,0.0,6.0,92,0.00,,---,0.09,VWS V14.01,2013-01-30 00:27:00,
2013-01-29 19:30:00,68.1,65.7,30.03,East,95,0.0,6.0,92,0.00,,---,0.09,VWS V14.01,2013-01-30 00:30:00,
2013-01-29 19:32:00,68.1,65.7,30.03,ESE,103,0.0,8.0,92,0.00,,---,0.09,VWS V14.01,2013-01-30 00:32:00,
2013-01-29 19:37:00,68.1,65.7,30.03,SSE,147,0.0,8.0,92,0.00,,---,0.09,VWS V14.01,2013-01-30 00:37:00,
2013-01-29 19:42:00,68.1,65.7,30.03,East,79,0.0,8.0,92,0.00,,---,0.09,VWS V14.01,2013-01-30 00:42:00,
2013-01-29 19:47:00,68.1,65.7,30.04,South,182,0.0,8.0,92,0.00,,---,0.09,VWS V14.01,2013-01-30 00:47:00,
2013-01-29 19:52:00,68.1,65.7,30.04,ESE,112,0.0,8.0,92,0.00,,---,0.09,VWS V14.01,2013-01-30 00:52:00,
2013-01-29 19:57:00,68.1,65.7,30.04,ESE,119,0.0,8.0,92,0.00,,---,0.09,VWS V14.01,2013-01-30 00:57:00,
2013-01-29 20:00:00,68.1,65.7,30.03,SE,127,0.0,8.0,92,0.00,,---,0.09,VWS V14.01,2013-01-30 01:00:00,
2013-01-29 20:02:00,68.1,65.7,30.03,ESE,114,2.0,2.0,92,0.00,,---,0.09,VWS V14.01,2013-01-30 01:02:00,
2013-01-29 20:07:00,68.1,65.7,30.03,ESE,113,0.0,2.0,92,0.00,,---,0.09,VWS V14.01,2013-01-30 01:07:00,
2013-01-29 20:12:00,68.1,66.0,30.03,East,92,0.0,3.0,93,0.00,,---,0.09,VWS V14.01,2013-01-30 01:12:00,
2013-01-29 20:17:00,68.1,66.0,30.03,SE,130,0.0,5.0,93,0.00,,---,0.09,VWS V14.01,2013-01-30 01:17:00,
2013-01-29 20:22:00,68.1,66.0,30.03,East,86,0.0,6.0,93,0.00,,---,0.09,VWS V14.01,2013-01-30 01:22:00,
2013-01-29 20:27:00,68.1,66.0,30.03,East,93,0.0,6.0,93,0.00,,---,0.09,VWS V14.01,2013-01-30 01:27:00,
2013-01-29 20:30:00,68.1,66.0,30.03,SSE,152,0.0,6.0,93,0.00,,---,0.09,VWS V14.01,2013-01-30 01:30:00,
2013-01-29 20:32:00,68.1,66.0,30.03,ESE,120,0.0,0.0,93,0.00,,---,0.09,VWS V14.01,2013-01-30 01:32:00,
2013-01-29 20:37:00,68.1,65.7,30.03,ESE,107,0.0,2.0,92,0.00,,---,0.09,VWS V14.01,2013-01-30 01:37:00,
2013-01-29 20:42:00,68.3,65.9,30.03,ESE,109,0.0,4.0,92,0.00,,---,0.09,VWS V14.01,2013-01-30 01:42:00,
2013-01-29 20:47:00,68.4,65.7,30.03,ENE,68,0.0,7.0,91,0.00,,---,0.09,VWS V14.01,2013-01-30 01:47:00,
2013-01-29 20:52:00,68.4,65.7,30.03,East,89,0.0,7.0,91,0.00,,---,0.09,VWS V14.01,2013-01-30 01:52:00,
2013-01-29 20:57:00,68.6,65.9,30.03,East,95,0.0,7.0,91,0.00,,---,0.09,VWS V14.01,2013-01-30 01:57:00,
2013-01-29 21:00:00,68.6,65.9,30.03,East,95,0.0,7.0,91,0.00,,---,0.09,VWS V14.01,2013-01-30 02:00:00,
2013-01-29 21:02:00,68.4,65.7,30.03,SE,138,0.0,5.0,91,0.00,,---,0.09,VWS V14.01,2013-01-30 02:02:00,
2013-01-29 21:07:00,68.6,65.6,30.03,East,79,0.0,5.0,90,0.00,,---,0.09,VWS V14.01,2013-01-30 02:07:00,
2013-01-29 21:12:00,68.6,65.6,30.03,ESE,109,0.0,5.0,90,0.00,,---,0.09,VWS V14.01,2013-01-30 02:12:00,
2013-01-29 21:17:00,68.8,65.8,30.02,East,85,3.0,6.0,90,0.00,,---,0.09,VWS V14.01,2013-01-30 02:17:00,
2013-01-29 21:22:00,68.8,65.8,30.02,ESE,106,0.0,6.0,90,0.00,,---,0.09,VWS V14.01,2013-01-30 02:22:00,
2013-01-29 21:27:00,68.6,65.6,30.02,SE,127,0.0,6.0,90,0.00,,---,0.09,VWS V14.01,2013-01-30 02:27:00,
2013-01-29 21:30:00,68.6,65.6,30.03,East,80,0.0,6.0,90,0.00,,---,0.09,VWS V14.01,2013-01-30 02:30:00,
2013-01-29 21:32:00,68.6,65.2,30.03,East,88,0.0,5.0,89,0.00,,---,0.09,VWS V14.01,2013-01-30 02:32:00,
2013-01-29 21:37:00,68.8,65.1,30.03,East,95,0.0,6.0,88,0.00,,---,0.09,VWS V14.01,2013-01-30 02:37:00,
2013-01-29 21:42:00,68.8,65.1,30.03,East,82,0.0,6.0,88,0.00,,---,0.09,VWS V14.01,2013-01-30 02:42:00,
2013-01-29 21:47:00,68.6,64.9,30.04,East,90,0.0,6.0,88,0.00,,---,0.09,VWS V14.01,2013-01-30 02:47:00,
2013-01-29 21:52:00,68.8,65.1,30.04,ENE,73,4.0,6.0,88,0.00,,---,0.09,VWS V14.01,2013-01-30 02:52:00,
2013-01-29 21:57:00,68.9,65.2,30.04,SE,140,5.0,10.0,88,0.00,,---,0.09,VWS V14.01,2013-01-30 02:57:00,
2013-01-29 22:00:00,68.9,64.9,30.03,East,88,2.0,10.0,87,0.00,,---,0.09,VWS V14.01,2013-01-30 03:00:00,
2013-01-29 22:02:00,69.1,65.1,30.03,SE,138,0.0,8.0,87,0.00,,---,0.09,VWS V14.01,2013-01-30 03:02:00,
2013-01-29 22:07:00,68.9,64.9,30.03,ESE,102,0.0,8.0,87,0.00,,---,0.09,VWS V14.01,2013-01-30 03:07:00,
2013-01-29 22:12:00,68.9,64.9,30.03,ENE,73,0.0,8.0,87,0.00,,---,0.09,VWS V14.01,2013-01-30 03:12:00,
2013-01-29 22:17:00,68.9,64.9,30.03,East,90,0.0,8.0,87,0.00,,---,0.09,VWS V14.01,2013-01-30 03:17:00,
2013-01-29 22:22:00,68.9,64.9,30.03,East,99,0.0,8.0,87,0.00,,---,0.09,VWS V14.01,2013-01-30 03:22:00,
2013-01-29 22:27:00,68.9,64.9,30.03,ESE,110,0.0,10.0,87,0.00,,---,0.09,VWS V14.01,2013-01-30 03:27:00,
2013-01-29 22:30:00,68.9,64.9,30.03,ESE,103,0.0,10.0,87,0.00,,---,0.09,VWS V14.01,2013-01-30 03:30:00,
2013-01-29 22:32:00,68.9,64.9,30.03,SE,127,0.0,3.0,87,0.00,,---,0.09,VWS V14.01,2013-01-30 03:32:00,
2013-01-29 22:37:00,68.9,64.9,30.03,East,85,1.0,6.0,87,0.00,,---,0.09,VWS V14.01,2013-01-30 03:37:00,
2013-01-29 22:42:00,69.1,65.1,30.03,SE,130,4.0,7.0,87,0.00,,---,0.09,VWS V14.01,2013-01-30 03:42:00,
2013-01-29 22:47:00,69.1,65.1,30.02,ESE,107,7.0,8.0,87,0.00,,---,0.09,VWS V14.01,2013-01-30 03:47:00,
2013-01-29 22:52:00,69.3,64.9,30.02,SE,130,1.0,8.0,86,0.00,,---,0.09,VWS V14.01,2013-01-30 03:52:00,
2013-01-29 22:57:00,69.3,64.9,30.02,East,82,6.0,8.0,86,0.00,,---,0.09,VWS V14.01,2013-01-30 03:57:00,
2013-01-29 23:00:00,69.3,64.9,30.03,East,85,2.0,8.0,86,0.00,,---,0.09,VWS V14.01,2013-01-30 04:00:00,
2013-01-29 23:02:00,69.3,64.9,30.03,ESE,109,0.0,4.0,86,0.00,,---,0.09,VWS V14.01,2013-01-30 04:02:00,
2013-01-29 23:07:00,69.3,64.9,30.03,SE,126,4.0,6.0,86,0.00,,---,0.09,VWS V14.01,2013-01-30 04:07:00,
2013-01-29 23:12:00,69.3,64.9,30.03,ESE,104,0.0,7.0,86,0.00,,---,0.09,VWS V14.01,2013-01-30 04:12:00,
2013-01-29 23:17:00,69.1,65.1,30.03,ESE,117,0.0,7.0,87,0.00,,---,0.09,VWS V14.01,2013-01-30 04:17:00,
2013-01-29 23:22:00,69.1,65.1,30.03,East,88,6.0,7.0,87,0.00,,---,0.09,VWS V14.01,2013-01-30 04:22:00,
2013-01-29 23:27:00,69.1,65.1,30.03,SE,131,0.0,7.0,87,0.00,,---,0.09,VWS V14.01,2013-01-30 04:27:00,
2013-01-29 23:30:00,68.9,64.9,30.04,East,99,0.0,7.0,87,0.00,,---,0.09,VWS V14.01,2013-01-30 04:30:00,
2013-01-29 23:32:00,68.9,65.2,30.04,ESE,123,0.0,0.0,88,0.00,,---,0.09,VWS V14.01,2013-01-30 04:32:00,
2013-01-29 23:37:00,68.9,65.2,30.04,ESE,123,0.0,6.0,88,0.00,,---,0.09,VWS V14.01,2013-01-30 04:37:00,
2013-01-29 23:42:00,68.9,65.2,30.04,West,274,0.0,6.0,88,0.00,,---,0.09,VWS V14.01,2013-01-30 04:42:00,
2013-01-29 23:47:00,68.9,65.2,30.04,East,93,0.0,6.0,88,0.00,,---,0.09,VWS V14.01,2013-01-30 04:47:00,
2013-01-29 23:52:00,68.8,65.1,30.04,East,86,0.0,6.0,88,0.00,,---,0.09,VWS V14.01,2013-01-30 04:52:00,
2013-01-29 23:57:00,68.8,65.1,30.04,SE,145,0.0,6.0,88,0.00,,---,0.09,VWS V14.01,2013-01-30 04:57:00,